Погода в Черняховске

Погода в Черняховске : погода сейчас, прогноз погоды и архив. Всё, что Вы хотите узнать о погоде в Черняховске!

Хотите узнать прогноз погоды в Черняховске? Тогда Вам сюда: Погода в Черняховске

Поиск расширенной информации на нашем сайте:

Другие новости

Новости СМИ2

Главная страница сайта

Новости сайта

03.07.2017

Напоминаем, что на нашем специализированном сайте Метеоцентр.Азия вы можете получить высокодетализированные автоматические прогнозы погоды по пунктам России, СНГ и мира в авиационном формате (включающие направление и скорость ветра, видимость, явления погоды, количество и форму облачности, нижнюю и верхнюю границу облачности).


Погода в Черняховске - сегодня

Время (UTC), дата Ветер
(°,м/с) 
Видим.   Явления Облачность Т
(°С)
Тd
(°С)
f(%) Тe
(°С)
Pmin
(гПа)
dP
(гПа)
Po
(мм)
O2
(г/м3)
Тmin Tmax R s Состояние
почвы
03 15.08.17 тихо () -0{01}  0500 м  туман  ясно 
+6.8 +6.5 98 +7  1027.4  0.2  768  301  +6.8         
06 15.08.17 тихо () -0{01}  10 км  {туман}  ясно 
+13.8 +13.3 97 +19  1027.9  0.6  768  292  +6.4        сухая 
09 15.08.17 070 (В) 1-2{03}  20000 м    ясно 
+20.6 +6.9 41 +21  1027.2  -0.7  768  287           
12 15.08.17 170 (Ю) 1-3{04}  20000 м    8/8 600 м 
[Cu med, cong]
+22.4 +10 45 +23  1025.8  -1.3  767  284           
15 15.08.17 130 (ЮВ) 1-3{05}  20000 м    9/9 600 м 
[Cu Sc]
+21.8 +9.6 46 +22  1024.9  -0.9  766  284           
21 15.08.17 тихо () -0{02}  4000 м  дымка  6/6 600 м 
[Sc]
+12.9 +11.8 93 +16  1023.6  -0.3  765  292           
00 16.08.17 130 (ЮВ) 1-2{03}  4000 м  дымка  8/8 600 м 
[Cu Sc]
+14 +11.9 87 +18  1022.7  -0.9  764  291           
03 16.08.17 тихо () -0{03}  10 км    3/3 300 м 
[Cu med, cong]
+10.2 +9.2 94 +10  1021.9  -0.8  764  295  +10.2         
06 16.08.17 160 (Ю) 1-2{03}  20000 м    1/0 верхняя 
[Ci fib]
+18.7 +12.4 67 +24  1021.3  -0.5  763  285  +10        сухая 
09 16.08.17 190 (Ю) 2-4{05}  20000 м    1/0 верхняя 
[Ci fib]
+24.1 +10.8 43 +26  1020.7  -0.5  763  281           
12 16.08.17 140 (ЮВ) 1-5{05}  20000 м    3/0 верхняя 
[Ci fib]
+26.1 +11.6 40 +29  1019.7  -1  762  278           
15 16.08.17 190 (Ю) 1-4{05}  20000 м    6/0 верхняя 
[Ci fib]
+26.4 +11.4 39 +29  1019.1  -0.6  762  278           
18 16.08.17 130 (ЮВ) 1-3{04}  20000 м    8/1 300 м верхняя 
[Sc diur, vesp|Ci]
+22.2 +14.2 60 +29  1018.8  -0.4  761  281    +26.9       
21 16.08.17 230 (ЮЗ) 1-2{04}  10 км    ясно 
+16.8 +13.2 79 +23  1019.1  0.2  761  286           
00 17.08.17 220 (ЮЗ) 2-4{04}  4000 м  слаб. ливневой дождь  10/10 300 м кучево-дожд. 
[Cb cap]
+15.8 +15 95 +25  1019.2  0.1  762  287           
03 17.08.17 250 (З) 1-3{06}  10 км  {ливн. осадки}  9/6 300 м верхняя 
[Cu Sc|Ci fib]
+16.4 +15.3 93 +27  1019.9  0.6  762  286  +15.5    0.0     
06 17.08.17 230 (ЮЗ) 2-4{04}  20000 м  {ливн. осадки}  9/8 300 м средняя, верхняя 
[Cu Sc|Ac trans|Ci fib]
+18.1 +15.9 87 +29  1020.6  0.8  763  285  +15.5    0.0    сухая 
09 17.08.17 240 (ЮЗ) 1-3{06}  20000 м    8/6 600 м верхняя 
[Cu med, cong|Ci]
+21.5 +14.7 65 +29  1021.5  0.9  763  282           
12 17.08.17 290 (З) 2-4{06}  20000 м    8/3 600 м верхняя 
[Cu med, cong|Cs]
+23.3 +14.7 58 +31  1020.8  -0.6  763  280           
15 17.08.17 260 (З) 1-3{05}  20000 м    5/4 600 м верхняя 
[Cu med, cong|Ci fib]
+24.7 +13.1 48 +30  1020.2  -0.6  762  279           
18 17.08.17 050 (СВ) 1-2{05}  20000 м    4/1 600 м верхняя 
[Cu med, cong|Ci fib]
+19.6 +14.9 74 +29  1020.1  -0.2  762  284    +25.1       
21 17.08.17 тихо () -0{03}  10 км    ясно 
+15.4 +13.4 88 +21  1019.8  -0.4  762  288           
00 18.08.17 090 (В) 1-3{04}  10 км    3/3 300 м 
[Cu med, cong]
+15.3 +13.3 88 +23  1018.4  -1.4  761  288           
03 18.08.17 140 (ЮВ) 2-4{05}  10 км    10/10 300 м 
[Cu Sc]
+16.1 +13 82 +22  1017.2  -1.2  760  287  +13.9         
06 18.08.17 180 (Ю) 1-2{04}  20000 м    10/10 300 м 
[Sc]
+19 +15.3 79 +30  1017.1  760  283  +13.9        сухая 
Время (UTC), дата Ветер
(°,м/с) 
Видим.   Явления Облачность Т
(°С)
Тd
(°С)
f(%) Тe
(°С)
Pmin
(гПа)
dP
(гПа)
Po
(мм)
O2
(г/м3)
Тmin Tmax R s Состояние
почвы

Для получения пояснительной информации подведите курсор к названию столбца.

ПОГОДА в Черняховске - архив

Всё, что Вы хотите узнать о погоде в Черняховске - удобно и подробно!

Выберите нужную дату (начиная с 1 января 2015* года) и нажмите кнопку "Найти".
Будут отображены архивные сводки погоды по пункту Черняховск, начиная с указанной даты.


Отображать данные в формате CSV (для использования в таблицах Excel)


Внимание! Наш архив погоды предназначен исключительно для личного некоммерческого использования в познавательных целях. Если Вам необходимы официальные справки о состоянии погоды (для производственных, юридических, коммерческих и т.п. целей), обращайтесь в органы Росгидромета.

*Примечание: данная дата относится к архиву по метеостанциям СССР (Россия, СНГ, Балтия).
Архив по метеостанциям Зарубежной Европы и Азии (кроме Китая) хранится 10 дней, по другим регионам земного шара (Китай, Африка, Америка, Австралия, Океания) - 1 день.

Черняховск - район местоположения метеостанции


Название, широта, долгота, высота метеостанции:
Черняховск 54.8°ш. 21.7°д. 25 м над ур. моря [Российская Федерация]

Дополнительная информация

В oтличие oт бoльшинства пoгoдных сайтoв мы публикуем пoдрoбную метеoинфoрмацию в детальнoм прoфессиoнальнoм фoрмате.

Характеристики температуры и влажнoсти вoздуха измеряются на высoте 2 м в тени вдали oт зданий и деревьев.
Скoрoсть ветра измеряется на высoте 10 м (на урoвне рoста челoвека скoрoсть ветра ниже в 1.5-2 раза). Если метеoстанция нахoдится в гoрoде или в лесу, тo скoрoсть ветра занижена на 2-4 м/с пo сравнению с oткрытым местoм. Скoрoсть ветра над акватoриями крупных рек и oзёр, а также на вершинах хoлмoв на 2-5 м/с выше, чем в oбычных услoвиях.
Атмoсфернoе давление в разных тoчках местнoсти мoжет значительнo oтличаться oт давления на метеoстанции, в зависимoсти oт услoвий рельефа (при пoдъёме на 10 м давление пoнижается примернo на 1 мм рт.ст.).